Regional Weather Roundup
Issued by NWS

Home | Current Version | Previous Version | Graphics & Text | Print | Product List | Glossary On
Versions: 1 2 3 4 5 6 7 8 9 10 11 12 13 14 15 16 17 18 19 20 21 22 23 24 25 26 27 28 29 30 31 32 33 34 35 36 37 38 39 40 41 42 43 44 45 46 47 48
000
ASUS45 KCYS 290410
RWRWY

WYOMING REGIONAL WEATHER ROUNDUP
NATIONAL WEATHER SERVICE CHEYENNE WY
900 PM MST FRI NOV 28 2014

NOTE:  "FAIR" INDICATES FEW OR NO CLOUDS BELOW 12,000 FEET
WITH NO SIGNIFICANT WEATHER AND/OR OBSTRUCTIONS TO VISIBILITY.

WYZ001-290500-
YELLOWSTONE NATIONAL PARK

CITY           SKY/WX    TMP DP  RH WIND       PRES   REMARKS
LK YELLOWSTONE   N/A     36  12  37 W8        29.69F WCI  30
W YELLOWSTONE  NOT AVBL

$$
WYZ002>013-054>058-071-098>099-290500-
NORTHERN WYOMING

CITY           SKY/WX    TMP DP  RH WIND       PRES   REMARKS
JACKSON        CLOUDY    45  18  33 S15       29.70F
CODY           PTCLDY    52  14  22 SW14G21   29.57F
GREYBULL       CLEAR     37  25  61 VRB6      29.56F WCI  32
WORLAND        PTCLDY    43  20  39 SW14      29.58S
SHERIDAN       PTCLDY    61   6  11 VRB7      29.44F
BUFFALO          N/A     48  12  23 MISG      29.52F
GILLETTE       MOCLDY    49  22  34 SW21G31   29.51F
HULETT           N/A    N/A N/A N/A MISG        N/A
NEWCASTLE      FAIR      43  25  49 N5        29.59F

$$
WYZ014>020-022>026-101>103-290500-
CENTRAL WYOMING

CITY           SKY/WX    TMP DP  RH WIND       PRES   REMARKS
BIG PINEY      MOCLDY    39  12  33 W15       29.80F WCI  31
PINEDALE       MOCLDY    37  16  41 SW9       29.80F WCI  31
DUBOIS         FAIR      43  14  31 W18G31    29.70F
LANDER         MOCLDY    55   7  14 SW30G45   29.67F
RIVERTON       MOCLDY    49  13  23 W13G21    29.69F
CASPER         PTCLDY    44  17  33 SW13      29.67F
DOUGLAS        PTCLDY    55  13  18 W26G40    29.64F

$$
WYZ021-027>030-104>119-290500-
SOUTHERN WYOMING

CITY           SKY/WX    TMP DP  RH WIND       PRES   REMARKS
EVANSTON       PTCLDY    41  15  35 SW21      29.85F
FORT BRIDGER   FAIR      47  10  21 SW20G26   29.87F
ROCK SPRINGS   PTCLDY    41  13  31 SW10      29.85F
DIXON          FAIR      45  15  29 SW15G21   29.93F
RAWLINS        CLEAR     45  14  28 SW22G35   29.82F
SARATOGA       FAIR      36  16  44 S9        29.87F WCI  29
LARAMIE        CLEAR     36  14  40 S13       29.84F WCI  27
CHEYENNE       MOCLDY    48  14  25 SW15      29.80F
TORRINGTON     CLOUDY    47  17  30 SE8       29.67F
PINE BLUFFS    FAIR      36  18  48 SW5       29.77F WCI  32

$$



USA.gov is the U.S. government's official web portal to all federal, state and local government web resources and services.